User: anonymous   Login
Location: Sperry Observatory
(40.6664°N, 74.3236°W)
Time: 02:49:05
(UTC-04:00)
Language:

UOSAT-12 - Orbit

View from above orbital plane
View from above orbital plane
View from above satellite
View from above satellite

Ground track
Ground track

The orbit data is extracted from the following two-line orbital elements,

1 25693U 99021A   17205.53626755 -.00000086 +00000-0 +79725-5 0  9990
2 25693 064.5564 010.5716 0037880 306.3144 053.4465 14.80743579985427
Epoch (UTC): 24 July 2017 12:52:13
Eccentricity: 0.0037880
inclination: 64.5564°
perigee height: 600 km
apogee height: 653 km
right ascension of ascending node: 10.5716°
argument of perigee: 306.3144°
revolutions per day: 14.80743579
mean anomaly at epoch: 53.4465°
orbit number at epoch: 98542

The dashed part of the orbit path shows where the satellite is in the earth's shadow,  

DLR